Information on these data can be found in provided Readme document
Contact Info: Zachary Fasnacht (zachary.fasnacht@ssaihq.com); Nickolay Krotkov (nickolay.a.krotkov@nasa.gov); Lok Lamsal (lok.lamsal@nasa.gov)

FillValue: -999.
ScaleFactor: 1e15
Units: molecules/cm^2

Date(yyyy-mm-dd),City,Country,LonCenter,LatCenter,BoundingCoordinates,Median,Q1,Q3,Mean,Baseline_Median,Baseline_Q1,Baseline_Q3,Baseline_Mean,NumGoodSamples,NumTotalSamples
2015-01-01,KansasCity,USA,-94.5786,39.0997,[-95.0786 38.5997 -94.0786 39.5997],2.868,1.997,4.9,3.804,3.087,1.883,4.689,3.554,130.0,591.0
2015-01-02,KansasCity,USA,-94.5786,39.0997,[-95.0786 38.5997 -94.0786 39.5997],2.868,1.656,5.047,3.943,3.029,1.766,4.62,3.472,106.0,589.0
2015-01-03,KansasCity,USA,-94.5786,39.0997,[-95.0786 38.5997 -94.0786 39.5997],2.817,1.997,4.614,3.644,2.883,1.838,4.399,3.327,138.0,584.0
2015-01-04,KansasCity,USA,-94.5786,39.0997,[-95.0786 38.5997 -94.0786 39.5997],2.817,1.997,4.613,3.637,2.943,1.924,4.448,3.367,136.0,589.0
2015-01-05,KansasCity,USA,-94.5786,39.0997,[-95.0786 38.5997 -94.0786 39.5997],2.801,1.997,4.225,3.438,2.958,1.942,4.38,3.338,162.0,585.0
2015-01-06,KansasCity,USA,-94.5786,39.0997,[-95.0786 38.5997 -94.0786 39.5997],2.617,1.997,4.133,3.373,2.839,1.841,4.184,3.183,134.0,588.0
2015-01-07,KansasCity,USA,-94.5786,39.0997,[-95.0786 38.5997 -94.0786 39.5997],2.756,2.068,4.225,3.659,2.833,1.732,4.257,3.243,120.0,593.0
2015-01-08,KansasCity,USA,-94.5786,39.0997,[-95.0786 38.5997 -94.0786 39.5997],2.885,2.152,4.269,3.787,2.902,1.77,4.253,3.307,148.0,598.0
2015-01-09,KansasCity,USA,-94.5786,39.0997,[-95.0786 38.5997 -94.0786 39.5997],2.859,2.152,4.269,3.794,2.926,1.761,4.319,3.334,143.0,569.0
2015-01-10,KansasCity,USA,-94.5786,39.0997,[-95.0786 38.5997 -94.0786 39.5997],2.885,2.152,4.269,3.798,2.544,1.664,4.05,3.082,144.0,556.0
2015-01-11,KansasCity,USA,-94.5786,39.0997,[-95.0786 38.5997 -94.0786 39.5997],2.885,2.152,4.269,3.798,2.652,1.701,4.348,3.358,144.0,551.0
2015-01-12,KansasCity,USA,-94.5786,39.0997,[-95.0786 38.5997 -94.0786 39.5997],3.566,2.306,5.397,4.222,2.784,1.74,4.348,3.394,181.0,553.0
2015-01-13,KansasCity,USA,-94.5786,39.0997,[-95.0786 38.5997 -94.0786 39.5997],3.566,2.306,5.397,4.222,2.831,1.77,4.376,3.49,181.0,554.0
2015-01-14,KansasCity,USA,-94.5786,39.0997,[-95.0786 38.5997 -94.0786 39.5997],3.631,2.409,5.306,4.005,2.998,1.872,4.743,3.511,204.0,557.0
2015-01-15,KansasCity,USA,-94.5786,39.0997,[-95.0786 38.5997 -94.0786 39.5997],3.884,2.727,5.397,4.272,3.2,2.092,4.93,3.752,199.0,560.0
2015-01-16,KansasCity,USA,-94.5786,39.0997,[-95.0786 38.5997 -94.0786 39.5997],3.763,2.617,5.12,3.973,3.077,2.032,4.59,3.567,193.0,565.0
2015-01-17,KansasCity,USA,-94.5786,39.0997,[-95.0786 38.5997 -94.0786 39.5997],3.669,2.505,4.993,3.862,3.281,2.193,4.692,3.721,218.0,563.0
2015-01-18,KansasCity,USA,-94.5786,39.0997,[-95.0786 38.5997 -94.0786 39.5997],3.749,2.718,5.319,4.057,3.424,2.48,5.207,4.054,186.0,559.0
2015-01-19,KansasCity,USA,-94.5786,39.0997,[-95.0786 38.5997 -94.0786 39.5997],3.382,2.409,4.931,3.776,3.188,2.284,4.847,3.839,219.0,554.0
2015-01-20,KansasCity,USA,-94.5786,39.0997,[-95.0786 38.5997 -94.0786 39.5997],3.747,2.678,5.393,3.98,3.253,2.324,4.785,3.793,193.0,557.0
2015-01-21,KansasCity,USA,-94.5786,39.0997,[-95.0786 38.5997 -94.0786 39.5997],3.749,2.588,5.35,3.974,3.503,2.427,4.98,3.894,213.0,549.0
2015-01-22,KansasCity,USA,-94.5786,39.0997,[-95.0786 38.5997 -94.0786 39.5997],3.669,2.566,5.35,3.941,3.284,2.3,4.516,3.646,198.0,550.0
2015-01-23,KansasCity,USA,-94.5786,39.0997,[-95.0786 38.5997 -94.0786 39.5997],3.608,2.566,5.12,3.85,3.259,2.302,4.42,3.602,183.0,555.0
2015-01-24,KansasCity,USA,-94.5786,39.0997,[-95.0786 38.5997 -94.0786 39.5997],3.608,2.566,5.12,3.85,3.252,2.301,4.408,3.587,183.0,593.0
2015-01-25,KansasCity,USA,-94.5786,39.0997,[-95.0786 38.5997 -94.0786 39.5997],3.608,2.566,5.12,3.847,3.218,2.221,4.307,3.494,182.0,595.0
2015-01-26,KansasCity,USA,-94.5786,39.0997,[-95.0786 38.5997 -94.0786 39.5997],3.624,2.566,5.319,3.951,2.961,2.053,4.164,3.163,190.0,586.0
2015-01-27,KansasCity,USA,-94.5786,39.0997,[-95.0786 38.5997 -94.0786 39.5997],3.283,2.121,4.447,3.517,2.835,1.909,3.814,2.994,153.0,581.0
2015-01-28,KansasCity,USA,-94.5786,39.0997,[-95.0786 38.5997 -94.0786 39.5997],3.283,2.121,4.447,3.517,2.823,1.917,3.801,2.982,153.0,583.0
2015-01-29,KansasCity,USA,-94.5786,39.0997,[-95.0786 38.5997 -94.0786 39.5997],2.981,1.998,4.246,3.362,2.731,1.88,3.773,2.94,115.0,583.0
2015-01-30,KansasCity,USA,-94.5786,39.0997,[-95.0786 38.5997 -94.0786 39.5997],2.973,1.998,4.004,3.231,2.741,1.886,3.737,2.928,141.0,583.0
2015-01-31,KansasCity,USA,-94.5786,39.0997,[-95.0786 38.5997 -94.0786 39.5997],2.778,1.93,3.867,3.12,2.667,1.854,3.679,2.855,154.0,586.0
2015-02-01,KansasCity,USA,-94.5786,39.0997,[-95.0786 38.5997 -94.0786 39.5997],2.68,1.703,3.624,2.887,2.652,1.783,3.617,2.823,140.0,590.0
2015-02-02,KansasCity,USA,-94.5786,39.0997,[-95.0786 38.5997 -94.0786 39.5997],2.68,1.703,3.624,2.887,2.624,1.75,3.63,2.84,140.0,587.0
2015-02-03,KansasCity,USA,-94.5786,39.0997,[-95.0786 38.5997 -94.0786 39.5997],2.708,1.663,3.898,3.023,2.678,1.779,3.677,2.875,107.0,582.0
2015-02-04,KansasCity,USA,-94.5786,39.0997,[-95.0786 38.5997 -94.0786 39.5997],2.734,1.663,3.964,3.064,2.652,1.764,3.696,2.849,110.0,578.0
2015-02-05,KansasCity,USA,-94.5786,39.0997,[-95.0786 38.5997 -94.0786 39.5997],2.413,1.451,3.735,2.849,2.644,1.719,3.825,2.926,90.0,583.0
2015-02-06,KansasCity,USA,-94.5786,39.0997,[-95.0786 38.5997 -94.0786 39.5997],2.924,1.703,4.004,3.131,2.795,1.723,3.962,3.054,117.0,579.0
2015-02-07,KansasCity,USA,-94.5786,39.0997,[-95.0786 38.5997 -94.0786 39.5997],2.645,1.56,4.004,3.043,2.633,1.638,3.916,2.946,104.0,583.0
2015-02-08,KansasCity,USA,-94.5786,39.0997,[-95.0786 38.5997 -94.0786 39.5997],2.645,1.56,4.004,3.043,2.577,1.632,3.904,2.938,104.0,589.0
2015-02-09,KansasCity,USA,-94.5786,39.0997,[-95.0786 38.5997 -94.0786 39.5997],2.645,1.56,4.004,3.043,2.518,1.545,3.756,2.881,104.0,595.0
2015-02-10,KansasCity,USA,-94.5786,39.0997,[-95.0786 38.5997 -94.0786 39.5997],2.566,1.458,3.875,2.79,2.566,1.543,3.84,2.917,96.0,565.0
2015-02-11,KansasCity,USA,-94.5786,39.0997,[-95.0786 38.5997 -94.0786 39.5997],2.566,1.545,3.875,2.793,2.5,1.555,3.961,2.885,101.0,555.0
2015-02-12,KansasCity,USA,-94.5786,39.0997,[-95.0786 38.5997 -94.0786 39.5997],2.566,1.545,3.875,2.793,2.514,1.527,3.927,2.866,101.0,550.0
2015-02-13,KansasCity,USA,-94.5786,39.0997,[-95.0786 38.5997 -94.0786 39.5997],2.566,1.545,3.875,2.793,2.456,1.512,3.89,2.815,101.0,552.0
2015-02-14,KansasCity,USA,-94.5786,39.0997,[-95.0786 38.5997 -94.0786 39.5997],2.36,1.216,4.004,2.706,2.409,1.439,3.925,2.759,70.0,552.0
2015-02-15,KansasCity,USA,-94.5786,39.0997,[-95.0786 38.5997 -94.0786 39.5997],2.403,1.451,4.004,2.728,2.488,1.459,4.009,2.791,62.0,553.0
2015-02-16,KansasCity,USA,-94.5786,39.0997,[-95.0786 38.5997 -94.0786 39.5997],3.311,2.353,4.373,3.607,2.455,1.488,3.948,2.828,76.0,558.0
2015-02-17,KansasCity,USA,-94.5786,39.0997,[-95.0786 38.5997 -94.0786 39.5997],2.976,1.974,4.004,3.21,2.327,1.468,3.489,2.659,87.0,565.0
2015-02-18,KansasCity,USA,-94.5786,39.0997,[-95.0786 38.5997 -94.0786 39.5997],2.899,1.752,4.015,3.201,2.547,1.502,3.736,2.808,112.0,563.0
2015-02-19,KansasCity,USA,-94.5786,39.0997,[-95.0786 38.5997 -94.0786 39.5997],2.858,1.691,4.004,3.161,2.576,1.48,3.829,2.89,109.0,560.0
2015-02-20,KansasCity,USA,-94.5786,39.0997,[-95.0786 38.5997 -94.0786 39.5997],2.899,1.691,4.015,3.194,2.492,1.508,3.634,2.758,114.0,555.0
2015-02-21,KansasCity,USA,-94.5786,39.0997,[-95.0786 38.5997 -94.0786 39.5997],2.58,1.17,3.735,2.875,2.401,1.446,3.5,2.608,87.0,558.0
2015-02-22,KansasCity,USA,-94.5786,39.0997,[-95.0786 38.5997 -94.0786 39.5997],2.58,1.17,3.735,2.875,2.436,1.463,3.554,2.665,87.0,549.0
2015-02-23,KansasCity,USA,-94.5786,39.0997,[-95.0786 38.5997 -94.0786 39.5997],2.58,1.17,3.735,2.875,2.506,1.564,3.571,2.684,87.0,550.0
2015-02-24,KansasCity,USA,-94.5786,39.0997,[-95.0786 38.5997 -94.0786 39.5997],2.58,1.17,3.735,2.875,2.516,1.559,3.586,2.696,87.0,556.0
2015-02-25,KansasCity,USA,-94.5786,39.0997,[-95.0786 38.5997 -94.0786 39.5997],2.58,1.17,3.735,2.875,2.478,1.669,3.545,2.681,87.0,594.0
2015-02-26,KansasCity,USA,-94.5786,39.0997,[-95.0786 38.5997 -94.0786 39.5997],2.58,1.128,3.735,2.876,2.503,1.655,3.467,2.681,82.0,595.0
2015-02-27,KansasCity,USA,-94.5786,39.0997,[-95.0786 38.5997 -94.0786 39.5997],2.541,1.203,3.546,2.851,2.457,1.639,3.416,2.678,104.0,584.0
2015-02-28,KansasCity,USA,-94.5786,39.0997,[-95.0786 38.5997 -94.0786 39.5997],2.541,1.203,3.546,2.851,2.546,1.66,3.526,2.728,104.0,578.0
2015-03-01,KansasCity,USA,-94.5786,39.0997,[-95.0786 38.5997 -94.0786 39.5997],2.708,1.619,3.546,2.799,2.658,1.795,3.635,2.797,135.0,581.0
2015-03-02,KansasCity,USA,-94.5786,39.0997,[-95.0786 38.5997 -94.0786 39.5997],2.708,1.322,3.546,2.885,2.819,1.837,3.781,2.925,119.0,582.0
2015-03-03,KansasCity,USA,-94.5786,39.0997,[-95.0786 38.5997 -94.0786 39.5997],3.146,2.054,4.251,3.317,2.868,1.923,3.943,2.994,132.0,582.0
2015-03-04,KansasCity,USA,-94.5786,39.0997,[-95.0786 38.5997 -94.0786 39.5997],3.334,2.358,4.828,3.997,3.053,2.054,4.208,3.25,145.0,585.0
2015-03-05,KansasCity,USA,-94.5786,39.0997,[-95.0786 38.5997 -94.0786 39.5997],3.876,2.708,5.592,4.372,3.068,2.032,4.205,3.198,131.0,591.0
2015-03-06,KansasCity,USA,-94.5786,39.0997,[-95.0786 38.5997 -94.0786 39.5997],3.711,2.653,5.259,4.224,2.971,2.007,4.115,3.13,143.0,589.0
2015-03-07,KansasCity,USA,-94.5786,39.0997,[-95.0786 38.5997 -94.0786 39.5997],3.711,2.653,5.259,4.223,2.951,2.016,4.137,3.133,138.0,585.0
2015-03-08,KansasCity,USA,-94.5786,39.0997,[-95.0786 38.5997 -94.0786 39.5997],3.349,2.355,4.945,3.879,2.863,1.874,4.081,3.042,170.0,581.0
2015-03-09,KansasCity,USA,-94.5786,39.0997,[-95.0786 38.5997 -94.0786 39.5997],3.349,2.355,4.945,3.879,2.944,1.919,4.136,3.103,170.0,586.0
2015-03-10,KansasCity,USA,-94.5786,39.0997,[-95.0786 38.5997 -94.0786 39.5997],3.05,2.042,4.8,3.53,2.889,1.835,4.145,3.032,198.0,581.0
2015-03-11,KansasCity,USA,-94.5786,39.0997,[-95.0786 38.5997 -94.0786 39.5997],3.05,2.042,4.8,3.53,2.937,1.863,4.151,3.084,198.0,585.0
2015-03-12,KansasCity,USA,-94.5786,39.0997,[-95.0786 38.5997 -94.0786 39.5997],3.05,2.042,4.8,3.53,3.003,1.869,4.376,3.159,198.0,590.0
2015-03-13,KansasCity,USA,-94.5786,39.0997,[-95.0786 38.5997 -94.0786 39.5997],3.06,2.042,4.828,3.584,3.046,1.845,4.455,3.209,227.0,595.0
2015-03-14,KansasCity,USA,-94.5786,39.0997,[-95.0786 38.5997 -94.0786 39.5997],3.09,2.054,4.832,3.647,3.074,1.797,4.432,3.169,205.0,566.0
2015-03-15,KansasCity,USA,-94.5786,39.0997,[-95.0786 38.5997 -94.0786 39.5997],3.057,2.054,4.8,3.569,2.907,1.742,4.359,3.104,226.0,555.0
2015-03-16,KansasCity,USA,-94.5786,39.0997,[-95.0786 38.5997 -94.0786 39.5997],3.09,2.042,4.945,3.724,2.882,1.649,4.383,3.11,195.0,550.0
2015-03-17,KansasCity,USA,-94.5786,39.0997,[-95.0786 38.5997 -94.0786 39.5997],3.09,2.042,4.945,3.724,2.688,1.612,4.192,3.001,195.0,553.0
2015-03-18,KansasCity,USA,-94.5786,39.0997,[-95.0786 38.5997 -94.0786 39.5997],2.744,1.899,4.876,3.429,2.539,1.581,4.115,2.879,157.0,557.0
2015-03-19,KansasCity,USA,-94.5786,39.0997,[-95.0786 38.5997 -94.0786 39.5997],2.597,1.789,3.951,2.964,2.443,1.461,3.721,2.65,173.0,557.0
2015-03-20,KansasCity,USA,-94.5786,39.0997,[-95.0786 38.5997 -94.0786 39.5997],2.428,1.734,3.246,2.617,2.432,1.485,3.512,2.595,188.0,559.0
2015-03-21,KansasCity,USA,-94.5786,39.0997,[-95.0786 38.5997 -94.0786 39.5997],2.332,1.591,3.172,2.553,2.399,1.444,3.479,2.574,187.0,564.0
2015-03-22,KansasCity,USA,-94.5786,39.0997,[-95.0786 38.5997 -94.0786 39.5997],2.369,1.591,3.172,2.543,2.465,1.48,3.551,2.611,195.0,564.0
2015-03-23,KansasCity,USA,-94.5786,39.0997,[-95.0786 38.5997 -94.0786 39.5997],2.272,1.591,3.124,2.462,2.591,1.578,3.62,2.698,163.0,560.0
2015-03-24,KansasCity,USA,-94.5786,39.0997,[-95.0786 38.5997 -94.0786 39.5997],2.373,1.591,3.193,2.542,2.522,1.552,3.541,2.636,196.0,557.0
2015-03-25,KansasCity,USA,-94.5786,39.0997,[-95.0786 38.5997 -94.0786 39.5997],2.512,1.591,3.733,2.667,2.612,1.541,3.769,2.704,168.0,561.0
2015-03-26,KansasCity,USA,-94.5786,39.0997,[-95.0786 38.5997 -94.0786 39.5997],2.332,1.102,3.172,2.428,2.478,1.34,3.43,2.564,192.0,551.0
2015-03-27,KansasCity,USA,-94.5786,39.0997,[-95.0786 38.5997 -94.0786 39.5997],2.332,1.102,3.172,2.428,2.498,1.392,3.36,2.558,192.0,552.0
2015-03-28,KansasCity,USA,-94.5786,39.0997,[-95.0786 38.5997 -94.0786 39.5997],2.428,1.432,3.172,2.402,2.426,1.439,3.26,2.481,192.0,559.0
2015-03-29,KansasCity,USA,-94.5786,39.0997,[-95.0786 38.5997 -94.0786 39.5997],2.424,1.35,3.172,2.39,2.455,1.569,3.222,2.536,220.0,596.0
2015-03-30,KansasCity,USA,-94.5786,39.0997,[-95.0786 38.5997 -94.0786 39.5997],2.424,1.337,3.172,2.38,2.56,1.641,3.393,2.6,199.0,597.0
2015-03-31,KansasCity,USA,-94.5786,39.0997,[-95.0786 38.5997 -94.0786 39.5997],2.424,1.432,3.172,2.39,2.544,1.698,3.333,2.595,212.0,584.0
2015-04-01,KansasCity,USA,-94.5786,39.0997,[-95.0786 38.5997 -94.0786 39.5997],2.424,1.432,3.172,2.39,2.549,1.719,3.347,2.609,212.0,578.0
2015-04-02,KansasCity,USA,-94.5786,39.0997,[-95.0786 38.5997 -94.0786 39.5997],2.428,1.484,3.172,2.387,2.529,1.723,3.34,2.59,215.0,577.0
2015-04-03,KansasCity,USA,-94.5786,39.0997,[-95.0786 38.5997 -94.0786 39.5997],2.443,1.218,3.154,2.364,2.531,1.661,3.429,2.627,175.0,581.0
2015-04-04,KansasCity,USA,-94.5786,39.0997,[-95.0786 38.5997 -94.0786 39.5997],2.361,1.207,3.124,2.277,2.524,1.673,3.419,2.595,174.0,584.0
2015-04-05,KansasCity,USA,-94.5786,39.0997,[-95.0786 38.5997 -94.0786 39.5997],2.459,1.432,3.126,2.356,2.505,1.705,3.339,2.575,163.0,586.0
2015-04-06,KansasCity,USA,-94.5786,39.0997,[-95.0786 38.5997 -94.0786 39.5997],2.459,1.432,3.126,2.363,2.472,1.729,3.311,2.545,155.0,590.0
2015-04-07,KansasCity,USA,-94.5786,39.0997,[-95.0786 38.5997 -94.0786 39.5997],2.498,1.484,3.255,2.418,2.478,1.715,3.316,2.525,180.0,589.0
2015-04-08,KansasCity,USA,-94.5786,39.0997,[-95.0786 38.5997 -94.0786 39.5997],2.448,1.337,2.985,2.291,2.422,1.675,3.239,2.501,147.0,587.0
2015-04-09,KansasCity,USA,-94.5786,39.0997,[-95.0786 38.5997 -94.0786 39.5997],2.272,1.427,2.983,2.288,2.33,1.599,3.223,2.453,175.0,581.0
2015-04-10,KansasCity,USA,-94.5786,39.0997,[-95.0786 38.5997 -94.0786 39.5997],2.478,1.715,3.267,2.526,2.369,1.633,3.262,2.469,151.0,588.0
2015-04-11,KansasCity,USA,-94.5786,39.0997,[-95.0786 38.5997 -94.0786 39.5997],2.478,1.715,3.267,2.526,2.341,1.618,3.268,2.466,151.0,581.0
2015-04-12,KansasCity,USA,-94.5786,39.0997,[-95.0786 38.5997 -94.0786 39.5997],2.212,1.61,3.067,2.34,2.243,1.509,3.057,2.357,122.0,583.0
2015-04-13,KansasCity,USA,-94.5786,39.0997,[-95.0786 38.5997 -94.0786 39.5997],2.238,1.642,3.117,2.407,2.271,1.525,3.109,2.374,113.0,587.0
2015-04-14,KansasCity,USA,-94.5786,39.0997,[-95.0786 38.5997 -94.0786 39.5997],2.238,1.638,3.117,2.409,2.236,1.471,3.034,2.31,141.0,593.0
2015-04-15,KansasCity,USA,-94.5786,39.0997,[-95.0786 38.5997 -94.0786 39.5997],2.212,1.615,3.117,2.392,2.224,1.408,3.025,2.263,128.0,565.0
2015-04-16,KansasCity,USA,-94.5786,39.0997,[-95.0786 38.5997 -94.0786 39.5997],2.238,1.638,3.225,2.479,2.231,1.369,3.035,2.279,145.0,553.0
2015-04-17,KansasCity,USA,-94.5786,39.0997,[-95.0786 38.5997 -94.0786 39.5997],2.238,1.615,3.255,2.487,2.289,1.406,3.143,2.356,142.0,546.0
2015-04-18,KansasCity,USA,-94.5786,39.0997,[-95.0786 38.5997 -94.0786 39.5997],2.238,1.615,3.255,2.487,2.269,1.442,3.065,2.302,142.0,546.0
2015-04-19,KansasCity,USA,-94.5786,39.0997,[-95.0786 38.5997 -94.0786 39.5997],2.503,1.723,3.359,2.612,2.402,1.492,3.285,2.415,117.0,547.0
2015-04-20,KansasCity,USA,-94.5786,39.0997,[-95.0786 38.5997 -94.0786 39.5997],2.656,1.895,3.74,2.868,2.46,1.605,3.42,2.524,157.0,548.0
2015-04-21,KansasCity,USA,-94.5786,39.0997,[-95.0786 38.5997 -94.0786 39.5997],2.76,1.895,3.791,2.919,2.522,1.708,3.425,2.557,188.0,552.0
2015-04-22,KansasCity,USA,-94.5786,39.0997,[-95.0786 38.5997 -94.0786 39.5997],2.75,1.915,3.668,2.91,2.485,1.736,3.373,2.56,193.0,555.0
2015-04-23,KansasCity,USA,-94.5786,39.0997,[-95.0786 38.5997 -94.0786 39.5997],2.665,1.895,3.554,2.787,2.464,1.699,3.357,2.551,218.0,551.0
2015-04-24,KansasCity,USA,-94.5786,39.0997,[-95.0786 38.5997 -94.0786 39.5997],2.794,1.91,3.718,2.896,2.531,1.712,3.443,2.604,193.0,546.0
2015-04-25,KansasCity,USA,-94.5786,39.0997,[-95.0786 38.5997 -94.0786 39.5997],2.794,1.91,3.718,2.896,2.574,1.769,3.496,2.629,193.0,540.0
2015-04-26,KansasCity,USA,-94.5786,39.0997,[-95.0786 38.5997 -94.0786 39.5997],2.794,1.91,3.718,2.896,2.502,1.64,3.383,2.575,193.0,546.0
2015-04-27,KansasCity,USA,-94.5786,39.0997,[-95.0786 38.5997 -94.0786 39.5997],2.656,1.95,3.386,2.784,2.528,1.695,3.358,2.551,225.0,543.0
2015-04-28,KansasCity,USA,-94.5786,39.0997,[-95.0786 38.5997 -94.0786 39.5997],2.644,1.95,3.453,2.798,2.449,1.683,3.201,2.5,212.0,545.0
2015-04-29,KansasCity,USA,-94.5786,39.0997,[-95.0786 38.5997 -94.0786 39.5997],2.665,1.975,3.515,2.828,2.408,1.698,3.134,2.458,184.0,556.0
2015-04-30,KansasCity,USA,-94.5786,39.0997,[-95.0786 38.5997 -94.0786 39.5997],2.665,1.975,3.515,2.828,2.355,1.733,3.045,2.422,184.0,591.0
2015-05-01,KansasCity,USA,-94.5786,39.0997,[-95.0786 38.5997 -94.0786 39.5997],2.644,1.953,3.377,2.775,2.338,1.723,3.008,2.414,171.0,595.0
2015-05-02,KansasCity,USA,-94.5786,39.0997,[-95.0786 38.5997 -94.0786 39.5997],2.644,1.953,3.377,2.759,2.284,1.69,2.913,2.327,173.0,586.0
2015-05-03,KansasCity,USA,-94.5786,39.0997,[-95.0786 38.5997 -94.0786 39.5997],2.644,1.953,3.377,2.759,2.263,1.683,2.901,2.304,173.0,577.0
2015-05-04,KansasCity,USA,-94.5786,39.0997,[-95.0786 38.5997 -94.0786 39.5997],2.506,1.91,3.251,2.669,2.175,1.635,2.782,2.197,199.0,577.0
2015-05-05,KansasCity,USA,-94.5786,39.0997,[-95.0786 38.5997 -94.0786 39.5997],2.366,1.798,3.086,2.434,2.09,1.573,2.683,2.096,159.0,580.0
2015-05-06,KansasCity,USA,-94.5786,39.0997,[-95.0786 38.5997 -94.0786 39.5997],2.312,1.797,2.801,2.332,2.019,1.54,2.585,2.007,128.0,581.0
2015-05-07,KansasCity,USA,-94.5786,39.0997,[-95.0786 38.5997 -94.0786 39.5997],2.102,1.61,2.594,2.058,1.981,1.492,2.537,1.964,98.0,585.0
2015-05-08,KansasCity,USA,-94.5786,39.0997,[-95.0786 38.5997 -94.0786 39.5997],2.133,1.649,2.594,2.212,1.978,1.487,2.527,1.972,73.0,586.0
2015-05-09,KansasCity,USA,-94.5786,39.0997,[-95.0786 38.5997 -94.0786 39.5997],2.021,1.61,2.484,2.001,1.938,1.448,2.453,1.903,88.0,586.0
2015-05-10,KansasCity,USA,-94.5786,39.0997,[-95.0786 38.5997 -94.0786 39.5997],1.997,1.61,2.506,2.0,1.873,1.379,2.419,1.884,106.0,581.0
2015-05-11,KansasCity,USA,-94.5786,39.0997,[-95.0786 38.5997 -94.0786 39.5997],1.984,1.493,2.468,1.96,1.88,1.388,2.406,1.898,137.0,586.0
2015-05-12,KansasCity,USA,-94.5786,39.0997,[-95.0786 38.5997 -94.0786 39.5997],1.82,1.298,2.334,1.805,1.924,1.44,2.422,1.91,105.0,629.0
2015-05-13,KansasCity,USA,-94.5786,39.0997,[-95.0786 38.5997 -94.0786 39.5997],1.871,1.298,2.344,1.815,1.877,1.364,2.365,1.869,99.0,647.0
2015-05-14,KansasCity,USA,-94.5786,39.0997,[-95.0786 38.5997 -94.0786 39.5997],1.871,1.298,2.344,1.816,1.866,1.376,2.405,1.886,105.0,645.0
2015-05-15,KansasCity,USA,-94.5786,39.0997,[-95.0786 38.5997 -94.0786 39.5997],1.871,1.298,2.344,1.816,1.771,1.242,2.34,1.799,105.0,656.0
2015-05-16,KansasCity,USA,-94.5786,39.0997,[-95.0786 38.5997 -94.0786 39.5997],1.871,1.323,2.344,1.816,1.771,1.24,2.319,1.788,101.0,660.0
2015-05-17,KansasCity,USA,-94.5786,39.0997,[-95.0786 38.5997 -94.0786 39.5997],1.871,1.323,2.344,1.825,1.778,1.2,2.331,1.787,99.0,631.0
2015-05-18,KansasCity,USA,-94.5786,39.0997,[-95.0786 38.5997 -94.0786 39.5997],1.82,1.298,2.344,1.809,1.746,1.156,2.378,1.784,105.0,624.0
2015-05-19,KansasCity,USA,-94.5786,39.0997,[-95.0786 38.5997 -94.0786 39.5997],1.699,1.245,2.203,1.688,1.707,1.136,2.351,1.741,79.0,618.0
2015-05-20,KansasCity,USA,-94.5786,39.0997,[-95.0786 38.5997 -94.0786 39.5997],2.219,1.542,2.98,2.313,1.778,1.193,2.475,1.841,118.0,617.0
2015-05-21,KansasCity,USA,-94.5786,39.0997,[-95.0786 38.5997 -94.0786 39.5997],2.219,1.542,2.98,2.313,1.801,1.219,2.4,1.831,118.0,617.0
2015-05-22,KansasCity,USA,-94.5786,39.0997,[-95.0786 38.5997 -94.0786 39.5997],2.219,1.542,2.98,2.313,1.786,1.197,2.394,1.824,118.0,619.0
2015-05-23,KansasCity,USA,-94.5786,39.0997,[-95.0786 38.5997 -94.0786 39.5997],2.219,1.542,2.98,2.313,1.851,1.296,2.489,1.893,118.0,625.0
2015-05-24,KansasCity,USA,-94.5786,39.0997,[-95.0786 38.5997 -94.0786 39.5997],2.126,1.401,2.824,2.187,1.912,1.299,2.549,1.963,120.0,626.0
2015-05-25,KansasCity,USA,-94.5786,39.0997,[-95.0786 38.5997 -94.0786 39.5997],2.126,1.298,2.824,2.201,1.982,1.321,2.562,2.008,103.0,628.0
2015-05-26,KansasCity,USA,-94.5786,39.0997,[-95.0786 38.5997 -94.0786 39.5997],2.202,1.094,3.15,2.286,1.998,1.299,2.592,1.996,84.0,612.0
2015-05-27,KansasCity,USA,-94.5786,39.0997,[-95.0786 38.5997 -94.0786 39.5997],2.202,1.094,3.15,2.286,1.966,1.248,2.572,1.978,84.0,565.0
2015-05-28,KansasCity,USA,-94.5786,39.0997,[-95.0786 38.5997 -94.0786 39.5997],2.202,1.094,3.15,2.286,1.975,1.258,2.57,1.978,84.0,547.0
2015-05-29,KansasCity,USA,-94.5786,39.0997,[-95.0786 38.5997 -94.0786 39.5997],2.385,1.562,3.269,2.396,2.004,1.357,2.644,2.021,109.0,541.0
2015-05-30,KansasCity,USA,-94.5786,39.0997,[-95.0786 38.5997 -94.0786 39.5997],2.385,1.561,3.269,2.367,2.004,1.314,2.638,2.004,116.0,539.0
2015-05-31,KansasCity,USA,-94.5786,39.0997,[-95.0786 38.5997 -94.0786 39.5997],2.075,1.044,2.941,2.034,1.994,1.252,2.66,1.968,143.0,548.0
2015-06-01,KansasCity,USA,-94.5786,39.0997,[-95.0786 38.5997 -94.0786 39.5997],1.829,0.979,2.841,1.955,1.955,1.281,2.651,1.967,172.0,585.0
2015-06-02,KansasCity,USA,-94.5786,39.0997,[-95.0786 38.5997 -94.0786 39.5997],1.894,1.001,2.941,1.986,1.955,1.265,2.631,1.947,188.0,586.0
2015-06-03,KansasCity,USA,-94.5786,39.0997,[-95.0786 38.5997 -94.0786 39.5997],1.968,0.979,2.914,1.968,1.951,1.276,2.638,1.972,209.0,576.0
2015-06-04,KansasCity,USA,-94.5786,39.0997,[-95.0786 38.5997 -94.0786 39.5997],1.501,0.802,2.385,1.615,1.838,1.243,2.488,1.875,170.0,572.0
2015-06-05,KansasCity,USA,-94.5786,39.0997,[-95.0786 38.5997 -94.0786 39.5997],1.501,0.802,2.385,1.615,1.836,1.224,2.517,1.88,170.0,576.0
2015-06-06,KansasCity,USA,-94.5786,39.0997,[-95.0786 38.5997 -94.0786 39.5997],1.501,0.802,2.385,1.615,1.821,1.188,2.52,1.841,170.0,578.0
2015-06-07,KansasCity,USA,-94.5786,39.0997,[-95.0786 38.5997 -94.0786 39.5997],1.501,0.802,2.385,1.615,1.743,1.111,2.471,1.763,170.0,580.0
2015-06-08,KansasCity,USA,-94.5786,39.0997,[-95.0786 38.5997 -94.0786 39.5997],1.561,0.786,2.541,1.69,1.69,1.053,2.404,1.719,155.0,588.0
2015-06-09,KansasCity,USA,-94.5786,39.0997,[-95.0786 38.5997 -94.0786 39.5997],1.561,0.786,2.541,1.69,1.717,1.06,2.42,1.721,154.0,593.0
2015-06-10,KansasCity,USA,-94.5786,39.0997,[-95.0786 38.5997 -94.0786 39.5997],1.551,0.786,2.548,1.682,1.727,1.093,2.458,1.758,148.0,594.0
2015-06-11,KansasCity,USA,-94.5786,39.0997,[-95.0786 38.5997 -94.0786 39.5997],1.551,0.786,2.548,1.682,1.748,1.084,2.466,1.771,148.0,592.0
2015-06-12,KansasCity,USA,-94.5786,39.0997,[-95.0786 38.5997 -94.0786 39.5997],1.419,0.768,2.385,1.546,1.747,1.133,2.484,1.781,181.0,600.0
2015-06-13,KansasCity,USA,-94.5786,39.0997,[-95.0786 38.5997 -94.0786 39.5997],1.001,0.569,1.686,1.2,1.684,1.068,2.359,1.712,150.0,645.0
2015-06-14,KansasCity,USA,-94.5786,39.0997,[-95.0786 38.5997 -94.0786 39.5997],1.001,0.575,1.712,1.209,1.688,1.06,2.378,1.731,143.0,660.0
2015-06-15,KansasCity,USA,-94.5786,39.0997,[-95.0786 38.5997 -94.0786 39.5997],1.182,0.667,2.235,1.345,1.665,1.078,2.424,1.722,124.0,659.0
2015-06-16,KansasCity,USA,-94.5786,39.0997,[-95.0786 38.5997 -94.0786 39.5997],1.261,0.686,2.27,1.404,1.632,1.051,2.389,1.692,95.0,665.0
2015-06-17,KansasCity,USA,-94.5786,39.0997,[-95.0786 38.5997 -94.0786 39.5997],0.992,0.575,2.083,1.157,1.664,0.998,2.332,1.679,101.0,671.0
2015-06-18,KansasCity,USA,-94.5786,39.0997,[-95.0786 38.5997 -94.0786 39.5997],0.949,0.457,1.578,1.013,1.652,0.991,2.315,1.682,80.0,643.0
2015-06-19,KansasCity,USA,-94.5786,39.0997,[-95.0786 38.5997 -94.0786 39.5997],0.992,0.618,1.578,1.114,1.645,0.98,2.326,1.698,92.0,630.0